Back to catalog

STARLINK-32745

AliveCommunicationsVLEO
NORAD 62755·PAYLOAD·🇺🇸 United States

Launched Jan 21, 2025 from Cape Canaveral Space Force Station

Loading…

Next Passes (next 24 hours)

TLE

FreshSource: CelesTrak SupGP

Epoch: Sep 14, 2026, 21:11 UTC

1 62755C 25014W   26257.88312500 -.00024960  00000+0 -90489-3 0  2578
2 62755  42.9990 166.0844 0001456 270.4971 324.0061 15.27560227    19

Track STARLINK-32745 in real time with AllMySat

Download on the App Store